******** Week 366 almanac for PRN-01 ******** ID: 01 Health: 000 Eccentricity: 0.1699924469E-002 Time of Applicability(s): 589824.0000 Orbital Inclination(rad): 0.9575719273 Rate of Right Ascen(r/s): -0.8297488481E-008 SQRT(A) (m 1/2): 5153.563965 Right Ascen at Week(rad): 0.2381847847E+001 Argument of Perigee(rad): 0.161987397 Mean Anom(rad): -0.2500122410E+001 Af0(s): 0.2946853638E-003 Af1(s/s): -0.7275957614E-011 week: 366 ******** Week 366 almanac for PRN-02 ******** ID: 02 Health: 000 Eccentricity: 0.1682186127E-001 Time of Applicability(s): 589824.0000 Orbital Inclination(rad): 0.9626352624 Rate of Right Ascen(r/s): -0.8297488481E-008 SQRT(A) (m 1/2): 5153.712402 Right Ascen at Week(rad): 0.2219473584E+001 Argument of Perigee(rad): -0.781505912 Mean Anom(rad): -0.9908823052E+000 Af0(s): 0.8106231689E-004 Af1(s/s): 0.7275957614E-011 week: 366 ******** Week 366 almanac for PRN-03 ******** ID: 03 Health: 000 Eccentricity: 0.6708621979E-002 Time of Applicability(s): 589824.0000 Orbital Inclination(rad): 0.9942496477 Rate of Right Ascen(r/s): -0.7360306586E-008 SQRT(A) (m 1/2): 5153.568848 Right Ascen at Week(rad): -0.2912921284E+001 Argument of Perigee(rad): 1.209290310 Mean Anom(rad): 0.1720414506E+001 Af0(s): 0.4987716675E-003 Af1(s/s): -0.1455191523E-010 week: 366 ******** Week 366 almanac for PRN-04 ******** ID: 04 Health: 000 Eccentricity: 0.3716945648E-002 Time of Applicability(s): 589824.0000 Orbital Inclination(rad): 0.9708144959 Rate of Right Ascen(r/s): -0.7806039439E-008 SQRT(A) (m 1/2): 5153.655762 Right Ascen at Week(rad): -0.1843569644E+001 Argument of Perigee(rad): -2.871514663 Mean Anom(rad): -0.1613149701E+001 Af0(s): 0.5340576172E-004 Af1(s/s): 0.0000000000E+000 week: 366 ******** Week 366 almanac for PRN-05 ******** ID: 05 Health: 000 Eccentricity: 0.5502700806E-002 Time of Applicability(s): 589824.0000 Orbital Inclination(rad): 0.9807434262 Rate of Right Ascen(r/s): -0.7497455156E-008 SQRT(A) (m 1/2): 5153.692871 Right Ascen at Week(rad): -0.2973245752E+001 Argument of Perigee(rad): 1.421732418 Mean Anom(rad): -0.9483251990E+000 Af0(s): -0.2317428589E-003 Af1(s/s): 0.0000000000E+000 week: 366 ******** Week 366 almanac for PRN-06 ******** ID: 06 Health: 000 Eccentricity: 0.3778934479E-002 Time of Applicability(s): 589824.0000 Orbital Inclination(rad): 0.9863700198 Rate of Right Ascen(r/s): -0.8023191341E-008 SQRT(A) (m 1/2): 5153.616699 Right Ascen at Week(rad): 0.2333681375E+001 Argument of Perigee(rad): -0.533857896 Mean Anom(rad): 0.3003219422E+001 Af0(s): -0.6093978882E-003 Af1(s/s): 0.3637978807E-011 week: 366 ******** Week 366 almanac for PRN-07 ******** ID: 07 Health: 000 Eccentricity: 0.2076339722E-001 Time of Applicability(s): 589824.0000 Orbital Inclination(rad): 0.9508008403 Rate of Right Ascen(r/s): -0.8023191341E-008 SQRT(A) (m 1/2): 5153.544434 Right Ascen at Week(rad): -0.8348387087E+000 Argument of Perigee(rad): -1.976605776 Mean Anom(rad): 0.2171080909E+001 Af0(s): -0.1745223999E-003 Af1(s/s): -0.3637978807E-011 week: 366 ******** Week 366 almanac for PRN-08 ******** ID: 08 Health: 000 Eccentricity: 0.1158952713E-001 Time of Applicability(s): 589824.0000 Orbital Inclination(rad): 0.9428792676 Rate of Right Ascen(r/s): -0.8308917528E-008 SQRT(A) (m 1/2): 5153.655762 Right Ascen at Week(rad): 0.1210904061E+001 Argument of Perigee(rad): 0.538310785 Mean Anom(rad): -0.1308626052E+001 Af0(s): 0.4596710205E-003 Af1(s/s): -0.7275957614E-011 week: 366 ******** Week 366 almanac for PRN-09 ******** ID: 09 Health: 000 Eccentricity: 0.3359794617E-002 Time of Applicability(s): 589824.0000 Orbital Inclination(rad): 0.9650680600 Rate of Right Ascen(r/s): -0.7828897534E-008 SQRT(A) (m 1/2): 5153.693848 Right Ascen at Week(rad): -0.1908145891E+001 Argument of Perigee(rad): 2.048097670 Mean Anom(rad): -0.7052195792E+000 Af0(s): 0.7581710815E-003 Af1(s/s): -0.3637978807E-011 week: 366 ******** Week 366 almanac for PRN-10 ******** ID: 10 Health: 000 Eccentricity: 0.1093292236E-001 Time of Applicability(s): 589824.0000 Orbital Inclination(rad): 0.9937762708 Rate of Right Ascen(r/s): -0.7348877539E-008 SQRT(A) (m 1/2): 5153.616211 Right Ascen at Week(rad): -0.2915428608E+001 Argument of Perigee(rad): -2.257635850 Mean Anom(rad): 0.7270600801E+000 Af0(s): -0.5893707275E-003 Af1(s/s): 0.0000000000E+000 week: 366 ******** Week 366 almanac for PRN-11 ******** ID: 11 Health: 000 Eccentricity: 0.2236366272E-002 Time of Applicability(s): 589824.0000 Orbital Inclination(rad): 0.9632644342 Rate of Right Ascen(r/s): -0.8251772291E-008 SQRT(A) (m 1/2): 5153.545898 Right Ascen at Week(rad): 0.2351436753E+001 Argument of Perigee(rad): -2.329792119 Mean Anom(rad): -0.2112073207E+001 Af0(s): -0.3690719604E-003 Af1(s/s): 0.1091393642E-010 week: 366 ******** Week 366 almanac for PRN-12 ******** ID: 12 Health: 000 Eccentricity: 0.8894920349E-002 Time of Applicability(s): 589824.0000 Orbital Inclination(rad): 0.9594714270 Rate of Right Ascen(r/s): -0.7611745631E-008 SQRT(A) (m 1/2): 5153.707031 Right Ascen at Week(rad): 0.2829550402E+000 Argument of Perigee(rad): 1.574639518 Mean Anom(rad): 0.1462765280E+001 Af0(s): -0.6084442139E-003 Af1(s/s): 0.0000000000E+000 week: 366 ******** Week 366 almanac for PRN-13 ******** ID: 13 Health: 000 Eccentricity: 0.1014661789E-001 Time of Applicability(s): 589824.0000 Orbital Inclination(rad): 0.9762912866 Rate of Right Ascen(r/s): -0.7817468486E-008 SQRT(A) (m 1/2): 5153.613281 Right Ascen at Week(rad): -0.1732395735E+001 Argument of Perigee(rad): 0.993619952 Mean Anom(rad): -0.1532545677E+001 Af0(s): 0.6790161133E-003 Af1(s/s): 0.0000000000E+000 week: 366 ******** Week 366 almanac for PRN-14 ******** ID: 14 Health: 000 Eccentricity: 0.6983280182E-002 Time of Applicability(s): 589824.0000 Orbital Inclination(rad): 0.9428073623 Rate of Right Ascen(r/s): -0.7806039439E-008 SQRT(A) (m 1/2): 5153.612305 Right Ascen at Week(rad): 0.2276047739E+000 Argument of Perigee(rad): -2.726680811 Mean Anom(rad): 0.1332646184E+001 Af0(s): 0.7438659668E-003 Af1(s/s): 0.0000000000E+000 week: 366 ******** Week 366 almanac for PRN-15 ******** ID: 15 Health: 000 Eccentricity: 0.1667594910E-001 Time of Applicability(s): 589824.0000 Orbital Inclination(rad): 0.9431369284 Rate of Right Ascen(r/s): -0.8046049436E-008 SQRT(A) (m 1/2): 5153.657227 Right Ascen at Week(rad): -0.2053344513E+001 Argument of Perigee(rad): 1.509936688 Mean Anom(rad): -0.2302478573E+001 Af0(s): 0.4043579102E-003 Af1(s/s): 0.3637978807E-011 week: 366 ******** Week 366 almanac for PRN-16 ******** ID: 16 Health: 000 Eccentricity: 0.1500225067E-001 Time of Applicability(s): 589824.0000 Orbital Inclination(rad): 0.9585845943 Rate of Right Ascen(r/s): -0.7646032774E-008 SQRT(A) (m 1/2): 5153.628906 Right Ascen at Week(rad): 0.2998430601E+000 Argument of Perigee(rad): 0.933229195 Mean Anom(rad): -0.2609235407E+000 Af0(s): 0.2470016479E-003 Af1(s/s): 0.7275957614E-011 week: 366 ******** Week 366 almanac for PRN-17 ******** ID: 17 Health: 000 Eccentricity: 0.1259088516E-001 Time of Applicability(s): 589824.0000 Orbital Inclination(rad): 0.9584587600 Rate of Right Ascen(r/s): -0.8183198006E-008 SQRT(A) (m 1/2): 5153.570312 Right Ascen at Week(rad): 0.1316364491E+001 Argument of Perigee(rad): -1.114358770 Mean Anom(rad): -0.1342439543E+001 Af0(s): -0.1163482666E-003 Af1(s/s): -0.7275957614E-011 week: 366 ******** Week 366 almanac for PRN-18 ******** ID: 18 Health: 000 Eccentricity: 0.5871772766E-002 Time of Applicability(s): 589824.0000 Orbital Inclination(rad): 0.9713298175 Rate of Right Ascen(r/s): -0.8171768958E-008 SQRT(A) (m 1/2): 5153.580566 Right Ascen at Week(rad): 0.2327977633E+001 Argument of Perigee(rad): -2.870897101 Mean Anom(rad): 0.2956503416E+001 Af0(s): -0.3738403320E-003 Af1(s/s): 0.1091393642E-010 week: 366 ******** Week 366 almanac for PRN-19 ******** ID: 19 Health: 000 Eccentricity: 0.1136302948E-001 Time of Applicability(s): 589824.0000 Orbital Inclination(rad): 0.9575958958 Rate of Right Ascen(r/s): -0.8228914196E-008 SQRT(A) (m 1/2): 5153.681641 Right Ascen at Week(rad): 0.1360236491E+001 Argument of Perigee(rad): 2.954514409 Mean Anom(rad): 0.4166398180E+000 Af0(s): 0.6971359253E-003 Af1(s/s): 0.0000000000E+000 week: 366 ******** Week 366 almanac for PRN-20 ******** ID: 20 Health: 000 Eccentricity: 0.2190113068E-002 Time of Applicability(s): 589824.0000 Orbital Inclination(rad): 0.9604541334 Rate of Right Ascen(r/s): -0.7931758961E-008 SQRT(A) (m 1/2): 5153.702637 Right Ascen at Week(rad): -0.1902772090E+001 Argument of Perigee(rad): -1.908306555 Mean Anom(rad): 0.1368963629E+001 Af0(s): 0.1144409180E-003 Af1(s/s): 0.1818989404E-010 week: 366 ******** Week 366 almanac for PRN-21 ******** ID: 21 Health: 000 Eccentricity: 0.8449554443E-003 Time of Applicability(s): 589824.0000 Orbital Inclination(rad): 0.9636479294 Rate of Right Ascen(r/s): -0.7646032774E-008 SQRT(A) (m 1/2): 5153.749512 Right Ascen at Week(rad): -0.2908090518E+001 Argument of Perigee(rad): -0.178311784 Mean Anom(rad): 0.1028842712E+001 Af0(s): 0.4148483276E-003 Af1(s/s): 0.0000000000E+000 week: 366 ******** Week 366 almanac for PRN-22 ******** ID: 22 Health: 000 Eccentricity: 0.1199865341E-001 Time of Applicability(s): 589824.0000 Orbital Inclination(rad): 0.9580333200 Rate of Right Ascen(r/s): -0.7657461821E-008 SQRT(A) (m 1/2): 5153.580566 Right Ascen at Week(rad): 0.3032035117E+000 Argument of Perigee(rad): -0.993051075 Mean Anom(rad): -0.6947966741E+000 Af0(s): -0.1621246338E-004 Af1(s/s): 0.7275957614E-011 week: 366 ******** Week 366 almanac for PRN-23 ******** ID: 23 Health: 000 Eccentricity: 0.6116390228E-002 Time of Applicability(s): 589824.0000 Orbital Inclination(rad): 0.9887428963 Rate of Right Ascen(r/s): -0.7428880871E-008 SQRT(A) (m 1/2): 5153.675293 Right Ascen at Week(rad): -0.2947721226E+001 Argument of Perigee(rad): -2.740785120 Mean Anom(rad): 0.1791943476E+001 Af0(s): 0.6380081177E-003 Af1(s/s): 0.3637978807E-011 week: 366 ******** Week 366 almanac for PRN-24 ******** ID: 24 Health: 000 Eccentricity: 0.1800298691E-001 Time of Applicability(s): 589824.0000 Orbital Inclination(rad): 0.9347599552 Rate of Right Ascen(r/s): -0.8320346576E-008 SQRT(A) (m 1/2): 5153.572266 Right Ascen at Week(rad): -0.9442089923E+000 Argument of Perigee(rad): 1.141846463 Mean Anom(rad): -0.3130128244E+001 Af0(s): -0.2956390381E-004 Af1(s/s): 0.1818989404E-010 week: 366 ******** Week 366 almanac for PRN-25 ******** ID: 25 Health: 000 Eccentricity: 0.1287889481E-001 Time of Applicability(s): 589824.0000 Orbital Inclination(rad): 0.9478407367 Rate of Right Ascen(r/s): -0.7737465154E-008 SQRT(A) (m 1/2): 5153.660645 Right Ascen at Week(rad): 0.1886567920E+000 Argument of Perigee(rad): 1.160573687 Mean Anom(rad): 0.1355573130E+001 Af0(s): 0.4291534424E-003 Af1(s/s): -0.3637978807E-011 week: 366 ******** Week 366 almanac for PRN-26 ******** ID: 26 Health: 000 Eccentricity: 0.1103067398E-001 Time of Applicability(s): 589824.0000 Orbital Inclination(rad): 0.9285820873 Rate of Right Ascen(r/s): -0.7954617056E-008 SQRT(A) (m 1/2): 5153.691895 Right Ascen at Week(rad): 0.1132932446E+000 Argument of Perigee(rad): 0.713199200 Mean Anom(rad): 0.5306588573E+000 Af0(s): -0.3557205200E-003 Af1(s/s): -0.3637978807E-011 week: 366 ******** Week 366 almanac for PRN-27 ******** ID: 27 Health: 000 Eccentricity: 0.1436614990E-001 Time of Applicability(s): 589824.0000 Orbital Inclination(rad): 0.9519513259 Rate of Right Ascen(r/s): -0.8240343243E-008 SQRT(A) (m 1/2): 5153.619629 Right Ascen at Week(rad): 0.1243349477E+001 Argument of Perigee(rad): 0.894908513 Mean Anom(rad): -0.1197989935E+001 Af0(s): -0.1125335693E-003 Af1(s/s): -0.1818989404E-010 week: 366 ******** Week 366 almanac for PRN-28 ******** ID: 28 Health: 000 Eccentricity: 0.4124641418E-003 Time of Applicability(s): 589824.0000 Orbital Inclination(rad): 0.9617064849 Rate of Right Ascen(r/s): -0.7954617056E-008 SQRT(A) (m 1/2): 5153.506836 Right Ascen at Week(rad): -0.8600636296E+000 Argument of Perigee(rad): -0.392909929 Mean Anom(rad): 0.2887907585E+001 Af0(s): -0.5521774292E-003 Af1(s/s): 0.1091393642E-010 week: 366 ******** Week 366 almanac for PRN-29 ******** ID: 29 Health: 000 Eccentricity: 0.3520488739E-002 Time of Applicability(s): 589824.0000 Orbital Inclination(rad): 0.9611072737 Rate of Right Ascen(r/s): -0.8183198006E-008 SQRT(A) (m 1/2): 5153.685059 Right Ascen at Week(rad): 0.1333229666E+001 Argument of Perigee(rad): 2.762315529 Mean Anom(rad): -0.1368562157E+001 Af0(s): -0.3376007080E-003 Af1(s/s): 0.7275957614E-011 week: 366 ******** Week 366 almanac for PRN-30 ******** ID: 30 Health: 000 Eccentricity: 0.8210659027E-002 Time of Applicability(s): 589824.0000 Orbital Inclination(rad): 0.9360662358 Rate of Right Ascen(r/s): -0.8206056101E-008 SQRT(A) (m 1/2): 5153.665039 Right Ascen at Week(rad): -0.8445238350E+000 Argument of Perigee(rad): -2.287172845 Mean Anom(rad): 0.1943056687E+001 Af0(s): 0.1926422119E-003 Af1(s/s): 0.1455191523E-010 week: 366 ******** Week 366 almanac for PRN-31 ******** ID: 31 Health: 000 Eccentricity: 0.1081275940E-001 Time of Applicability(s): 589824.0000 Orbital Inclination(rad): 0.9545638869 Rate of Right Ascen(r/s): -0.8034620388E-008 SQRT(A) (m 1/2): 5153.525391 Right Ascen at Week(rad): -0.8104122368E+000 Argument of Perigee(rad): 0.944616830 Mean Anom(rad): 0.1091876365E+001 Af0(s): -0.1544952393E-003 Af1(s/s): 0.3637978807E-011 week: 366 ******** Week 366 almanac for PRN-32 ******** ID: 32 Health: 000 Eccentricity: 0.9380817413E-002 Time of Applicability(s): 589824.0000 Orbital Inclination(rad): 0.9680761005 Rate of Right Ascen(r/s): -0.7806039439E-008 SQRT(A) (m 1/2): 5153.694336 Right Ascen at Week(rad): -0.1890984481E+001 Argument of Perigee(rad): -1.980709999 Mean Anom(rad): -0.6515025381E+000 Af0(s): 0.9536743164E-005 Af1(s/s): 0.1818989404E-010 week: 366